www.pogodaiklimat.ru

Погода и климат >> Архив погоды >> Япония >> Хита


ПОГОДА в Хите

  • Прогноз погоды в Хите
  • Монитор погоды в Хите

АРХИВ ПОГОДЫ в Хите

Время (UTC), дата Ветер
(напр.,м/с)
 
Видим.   Явления Облачность Т
(С)
Тd
(С)
f
(%)
Тe
(С)
Тes
(С)
Комфортность P
(гПа)
Po
(гПа)
Тmin
(С)
Tmax
(С)
R
(мм)
R24
(мм)
S
(см)
13 18.06 СЗ 1 20 км н/о +19.0 +15.9 82 +22 +22 комфорт 1011.9 1002.0
14 18.06 ЮЗ 1 20 км н/о +18.7 +15.8 83 +21 +21 комфорт 1012.0 1002.1
15 18.06 З 1 20 км н/о +18.6 +15.9 84 +21 +21 комфорт 1011.3 1001.4
16 18.06 З 1 19 км н/о +18.1 +15.7 86 +20 +20 1010.8 1000.9
17 18.06 С 1 17 км н/о +17.7 +15.7 88 +19 +19 1010.0 1000.1
18 18.06 С 1 18 км н/о +17.6 +15.6 88 +19 +19 1009.4 999.5
19 18.06 З 1 17 км н/о +17.1 +15.8 92 +18 +18 1009.2 999.3
20 18.06 З 1 14 км н/о +16.8 +15.8 94 +18 +18 1008.9 999.0
21 18.06 С 1 14 км н/о +16.9 +15.4 91 +18 +18 1008.5 998.6
22 18.06 СВ 1 14 км н/о +17.9 +15.5 86 +19 +19 1008.1 998.2
23 18.06 З 1 15 км н/о +19.9 +16.0 78 +23 +23 комфорт 1007.5 997.7
00 19.06 ЮВ 1 17 км н/о +24.3 +15.8 59 +27 +27 жарко 1006.7 997.1 +16.5
01 19.06 СВ 5 20 км н/о +28.0 +15.3 46 +31 +31 душно 1006.0 996.5
02 19.06 СВ 4 20 км н/о +29.3 +16.5 46 +33 +33 душно 1004.9 995.5
03 19.06 СВ 5 19 км н/о +29.7 +17.9 49 +34 +34 очень
душно
1004.3 994.9
04 19.06 СВ 6 20 км н/о +29.8 +17.6 48 +34 +34 очень
душно
1003.6 994.2
05 19.06 СВ 7 20 км н/о +29.4 +18.2 51 +34 +34 очень
душно
1003.4 994.0
06 19.06 СВ 5 н/о н/о +30.5 +18.3 48 +35 +35 очень
душно
1003.5 994.1
07 19.06 СВ 5 20 км н/о +29.8 +18.6 51 +35 +35 очень
душно
1003.1 993.7
08 19.06 СВ 5 19 км н/о +29.0 +18.5 53 +34 +34 очень
душно
1003.3 993.9
09 19.06 СВ 4 20 км н/о +28.3 +19.0 57 +34 +34 очень
душно
1003.3 993.9
10 19.06 В 3 18 км н/о +26.9 +18.5 60 +32 +32 очень
душно
1003.9 994.4
11 19.06 В 2 16 км н/о +25.6 +18.8 66 +31 +31 очень
душно
1004.4 994.9
12 19.06 В 2 15 км н/о +24.7 +19.3 72 +30 +30 очень
душно
1005.2 995.6 +31.3
13 19.06 ЮВ 2 15 км н/о +23.3 +18.8 76 +30 +30 очень
душно
1005.8 996.2
14 19.06 ЮВ 2 15 км н/о +22.3 +18.5 79 +28 +28 душно 1006.2 996.5
15 19.06 ЮВ 2 13 км н/о +21.2 +18.2 83 +25 +25 комфорт 1006.2 996.5
16 19.06 ЮВ 2 13 км н/о +20.9 +18.1 84 +26 +26 душно 1006.2 996.5
17 19.06 ЮВ 1 12 км н/о +20.0 +17.8 87 +24 +24 комфорт 1006.6 996.8
18 19.06 ЮВ 1 11 км н/о +19.5 +17.6 89 +23 +23 комфорт 1006.6 996.8
19 19.06 С 1 6000 м дымка н/о +18.9 +17.9 94 +21 +21 комфорт 1006.8 997.0
20 19.06 В 1 9000 м дымка н/о +18.8 +17.5 92 +21 +21 комфорт 1007.4 997.6
21 19.06 СВ 1 6000 м дымка н/о +18.5 +17.5 94 +20 +20 1007.7 997.9
22 19.06 З 1 9000 м в посл. час дождь н/о +19.6 +17.6 88 +23 +23 комфорт 1008.1 998.3
23 19.06 СЗ 1 12 км н/о +21.7 +17.9 79 +26 +26 душно 1008.0 998.3
00 20.06 В 1 13 км {дождь} н/о +24.5 +17.7 66 +29 +29 душно 1007.5 997.9 +18.3
01 20.06 З 1 14 км н/о +27.6 +18.6 58 +33 +33 очень
душно
1006.8 997.3
02 20.06 З 1 16 км н/о +29.5 +18.0 50 +34 +34 очень
душно
1006.4 997.0
03 20.06 З 2 19 км н/о +31.5 +17.0 42 +35 +35 очень
душно
1005.8 996.4
04 20.06 З 4 20 км н/о +32.2 +15.3 36 +34 +34 душно 1005.2 995.9
05 20.06 З 4 20 км н/о +33.0 +17.2 39 +37 +37 очень
душно
1004.9 995.6
06 20.06 З 4 19 км н/о +33.6 +16.5 36 +36 +36 очень
душно
1004.6 995.3
07 20.06 З 4 20 км н/о +32.7 +15.7 36 +35 +35 душно 1004.5 995.2
08 20.06 З 4 18 км н/о +32.3 +17.0 40 +36 +36 очень
душно
1004.6 995.3
09 20.06 З 4 16 км н/о +30.9 +18.3 47 +36 +36 очень
душно
1005.1 995.7
10 20.06 З 3 17 км н/о +29.2 +18.3 52 +34 +34 очень
душно
1005.9 996.5
11 20.06 СЗ 3 16 км н/о +27.5 +17.4 54 +32 +32 очень
душно
1006.9 997.4
12 20.06 ЮЗ 2 15 км н/о +26.6 +17.9 59 +31 +31 душно 1007.5 998.0 +33.9
13 20.06 З 1 13 км н/о +24.9 +18.6 68 +30 +30 душно 1008.2 998.6
15 20.06 З 1 10 км н/о +23.3 +19.1 77 +30 +30 очень
душно
1008.5 998.8
16 20.06 Ю 1 11 км н/о +22.8 +18.6 77 +29 +29 очень
душно
1007.9 998.2
17 20.06 СЗ 1 9000 м дымка н/о +22.2 +19.0 82 +28 +28 душно 1007.3 997.6
18 20.06 З 2 8000 м дымка н/о +21.5 +19.1 86 +26 +26 душно 1007.2 997.5
19 20.06 З 1 7000 м дымка н/о +21.3 +19.1 87 +26 +26 душно 1007.2 997.5
20 20.06 Ю 1 8000 м дымка н/о +21.3 +19.1 87 +26 +26 душно 1006.7 997.0
21 20.06 ЮЗ 1 6000 м дымка н/о +21.1 +19.0 88 +25 +25 комфорт 1006.8 997.1
22 20.06 Ю 1 6000 м дымка н/о +21.8 +19.4 86 +27 +27 душно 1007.1 997.4
23 20.06 В 1 7000 м дымка н/о +22.3 +19.1 82 +28 +28 душно 1007.2 997.5
00 21.06 штиль 0 7000 м дымка н/о +22.8 +19.2 80 +29 +29 очень
душно
1006.9 997.2 +21.0
01 21.06 ЮЗ 1 7000 м дымка н/о +23.8 +19.3 76 +29 +29 душно 1006.9 997.3
02 21.06 В 2 9000 м дым н/о +25.9 +19.8 69 +32 +32 очень
душно
1006.5 997.0
03 21.06 В 2 11 км н/о +28.2 +18.6 56 +33 +33 очень
душно
1005.4 995.9
04 21.06 В 3 14 км н/о +30.2 +18.6 50 +35 +35 очень
душно
1004.3 994.9
05 21.06 В 2 15 км н/о +31.1 +17.4 44 +35 +35 очень
душно
1003.1 993.8
06 21.06 Ю 2 14 км н/о +31.8 +16.5 40 +35 +35 очень
душно
1002.8 993.5
07 21.06 ЮЗ 3 5000 м слаб. дождь н/о +26.7 +20.8 70 +33 +33 очень
душно
1002.9 993.4
08 21.06 С 2 6000 м в посл. час дождь н/о +24.8 +21.1 80 +31 +31 очень
душно
1003.2 993.6
09 21.06 З 2 4700 м дымка {дождь} н/о +24.4 +22.3 88 +32 +32 очень
душно
1003.2 993.6
10 21.06 З 2 5000 м в посл. час дождь н/о +24.2 +22.3 89 +31 +31 очень
душно
1004.0 994.4
11 21.06 ЮЗ 1 4800 м дымка н/о +23.9 +22.2 90 +31 +31 очень
душно
1004.3 994.7
12 21.06 З 1 4800 м дымка {дождь} н/о +23.2 +21.3 89 +31 +31 очень
душно
1004.9 995.3 +32.7 2
13 21.06 З 1 4000 м дымка н/о +22.6 +21.6 94 +30 +30 очень
душно
1005.1 995.4
15 21.06 ЮЗ 1 4000 м дымка н/о +21.6 +20.8 95 +27 +27 душно 1005.0 995.3
16 21.06 С 1 4100 м дымка н/о +21.3 +20.5 95 +27 +27 душно 1004.6 994.9
17 21.06 З 1 3900 м слаб. дождь н/о +21.2 +20.4 95 +26 +26 душно 1004.3 994.6
18 21.06 З 1 4000 м слаб. дождь н/о +21.4 +20.4 94 +27 +27 душно 1004.2 994.5 0.0
19 21.06 ЮЗ 1 2900 м слаб. дождь н/о +21.1 +20.8 98 +26 +26 душно 1004.5 994.8
20 21.06 СЗ 1 2900 м слаб. дождь н/о +21.3 +20.8 97 +27 +27 душно 1004.6 994.9
21 21.06 штиль 0 3300 м слаб. дождь н/о +21.4 +20.7 96 +27 +27 душно 1004.9 995.2
22 21.06 З 2 3400 м слаб. дождь н/о +21.7 +20.7 94 +28 +28 душно 1004.9 995.2
23 21.06 С 1 4700 м н/о +23.1 +20.4 85 +30 +30 очень
душно
1005.0 995.4
00 22.06 В 1 8000 м н/о +24.1 +20.0 78 +30 +30 очень
душно
1005.1 995.5 +21.0
01 22.06 З 2 8000 м н/о +25.4 +20.4 74 +31 +31 очень
душно
1004.7 995.2
02 22.06 З 2 8000 м н/о +27.4 +19.5 62 +33 +33 очень
душно
1004.5 995.0
03 22.06 С 2 11 км н/о +27.9 +18.9 58 +33 +33 очень
душно
1003.9 994.4
04 22.06 З 3 10 км н/о +28.3 +18.4 55 +33 +33 очень
душно
1003.4 994.0
05 22.06 СЗ 5 11 км н/о +29.6 +19.3 54 +35 +35 очень
душно
1003.1 993.7
06 22.06 С 3 12 км н/о +28.6 +18.4 54 +33 +33 очень
душно
1002.8 993.4
08 22.06 СЗ 5 13 км н/о +27.3 +19.1 61 +33 +33 очень
душно
1003.2 993.7
09 22.06 С 3 14 км н/о +25.8 +19.0 66 +31 +31 очень
душно
1003.9 994.4
10 22.06 СЗ 3 13 км н/о +24.1 +18.5 71 +29 +29 душно 1004.4 994.8
11 22.06 СВ 2 14 км н/о +23.6 +18.9 75 +28 +28 душно 1005.2 995.6
12 22.06 З 3 14 км н/о +22.5 +17.9 75 +28 +28 душно 1005.7 996.0 +30.6
13 22.06 З 2 15 км н/о +22.1 +17.9 77 +27 +27 душно 1006.2 996.5
14 22.06 ЮВ 2 16 км н/о +22.0 +18.2 79 +27 +27 душно 1005.9 996.2
15 22.06 В 3 15 км н/о +21.2 +17.8 81 +25 +25 комфорт 1005.4 995.7
16 22.06 СВ 3 13 км н/о +20.4 +17.8 85 +24 +24 комфорт 1005.3 995.6
17 22.06 С 2 12 км н/о +19.8 +17.6 87 +23 +23 комфорт 1005.2 995.4
18 22.06 ЮЗ 2 12 км н/о +19.8 +17.8 88 +23 +23 комфорт 1005.2 995.4
19 22.06 СЗ 1 13 км н/о +19.5 +17.1 86 +23 +23 комфорт 1005.2 995.4
20 22.06 С 3 15 км н/о +18.9 +16.5 86 +21 +21 комфорт 1005.7 995.9
21 22.06 СВ 1 15 км н/о +18.3 +15.9 86 +20 +20 1006.0 996.2
22 22.06 СВ 1 17 км н/о +19.5 +15.8 79 +23 +23 комфорт 1006.5 996.7
23 22.06 В 2 20 км н/о +20.7 +15.3 71 +25 +25 комфорт 1006.3 996.6
00 23.06 СВ 1 20 км н/о +21.6 +14.8 65 +25 +25 комфорт 1006.0 996.3 +17.9
01 23.06 В 2 20 км н/о +23.9 +14.6 56 +27 +27 жарко 1006.0 996.4
02 23.06 СЗ 2 20 км н/о +25.6 +15.3 53 +29 +29 душно 1005.6 996.1
03 23.06 З 3 20 км н/о +25.4 +14.5 51 +28 +28 жарко 1005.4 995.8
04 23.06 ЮЗ 3 20 км н/о +27.0 +15.1 48 +30 +30 душно 1004.7 995.2
05 23.06 З 4 20 км н/о +27.9 +14.5 44 +30 +30 жарко 1004.4 994.9
06 23.06 СЗ 5 20 км н/о +27.0 +14.7 47 +30 +30 душно 1004.7 995.2
07 23.06 СЗ 4 20 км н/о +27.9 +14.2 43 +30 +30 жарко 1004.6 995.1
08 23.06 СЗ 5 20 км н/о +26.3 +14.1 47 +29 +29 жарко 1005.0 995.5
09 23.06 СЗ 4 20 км н/о +24.8 +14.6 53 +27 +27 жарко 1005.4 995.8
10 23.06 СЗ 5 20 км н/о +23.0 +14.3 58 +27 +27 душно 1006.1 996.5
11 23.06 СЗ 3 20 км н/о +21.7 +13.6 60 +24 +24 комфорт 1007.2 997.5
12 23.06 З 3 20 км н/о +20.2 +14.1 68 +23 +23 комфорт 1007.9 998.1 +28.6
13 23.06 З 2 20 км н/о +19.5 +14.5 73 +22 +22 комфорт 1008.5 998.7
14 23.06 ЮЗ 2 20 км н/о +18.3 +14.6 79 +19 +19 1009.1 999.2
15 23.06 З 2 20 км н/о +17.8 +14.5 81 +19 +19 1008.9 999.0
16 23.06 С 1 20 км н/о +17.0 +14.7 86 +18 +18 1009.0 999.1
17 23.06 З 1 20 км н/о +15.9 +14.4 91 +17 +17 1009.1 999.2
18 23.06 З 1 20 км н/о +15.5 +14.2 92 +16 +16 1009.5 999.5
19 23.06 З 1 20 км н/о +15.3 +14.0 92 +16 +16 1010.0 1000.0
20 23.06 СВ 1 20 км н/о +14.6 +13.7 94 +16 +16 1010.7 1000.7
21 23.06 Ю 2 20 км н/о +14.9 +13.6 92 +15 +15 1011.5 1001.5
22 23.06 СЗ 1 20 км н/о +15.7 +14.1 90 +16 +16 1012.3 1002.3
23 23.06 Ю 1 20 км н/о +17.7 +14.6 82 +19 +19 1012.6 1002.7
00 24.06 ЮЗ 1 20 км н/о +20.3 +14.9 71 +24 +24 комфорт 1012.5 1002.7 +14.4
01 24.06 В 2 20 км н/о +23.2 +15.3 61 +27 +27 душно 1012.2 1002.5
02 24.06 Ю 3 20 км н/о +25.7 +15.1 52 +29 +29 душно 1012.0 1002.4
03 24.06 З 2 20 км н/о +26.7 +14.8 48 +29 +29 жарко 1011.5 1001.9
04 24.06 С 2 20 км н/о +26.7 +14.8 48 +29 +29 жарко 1011.1 1001.5
05 24.06 З 3 20 км н/о +29.4 +15.5 43 +32 +32 душно 1010.6 1001.1
06 24.06 СВ 4 20 км н/о +29.0 +15.9 45 +32 +32 душно 1010.5 1001.0
07 24.06 СВ 2 20 км н/о +29.2 +14.6 41 +31 +31 жарко 1010.4 1000.9
08 24.06 СВ 4 20 км н/о +27.7 +14.4 44 +30 +30 жарко 1010.4 1000.9
09 24.06 СВ 4 20 км н/о +27.6 +14.3 44 +30 +30 жарко 1011.0 1001.5
10 24.06 СВ 4 20 км н/о +25.8 +14.9 51 +29 +29 душно 1012.1 1002.5
11 24.06 В 3 20 км н/о +24.4 +14.8 55 +27 +27 жарко 1013.1 1003.4
12 24.06 Ю 2 20 км н/о +22.9 +15.3 62 +27 +27 душно 1014.2 1004.5 +29.9
13 24.06 ЮВ 2 20 км н/о +21.3 +14.9 67 +24 +24 комфорт 1015.0 1005.2
14 24.06 В 2 20 км н/о +21.0 +14.9 68 +25 +25 комфорт 1015.1 1005.3
15 24.06 В 2 20 км н/о +19.9 +14.9 73 +23 +23 комфорт 1015.2 1005.3
16 24.06 В 2 20 км н/о +19.1 +14.8 76 +21 +21 комфорт 1015.2 1005.3
17 24.06 ЮВ 1 20 км н/о +18.2 +14.7 80 +20 +20 1015.1 1005.2
19 24.06 СВ 2 20 км н/о +17.1 +14.8 86 +18 +18 1015.4 1005.4
20 24.06 ЮЗ 1 20 км н/о +16.1 +14.6 91 +17 +17 1015.9 1005.9
21 24.06 СЗ 1 17 км н/о +16.2 +14.7 91 +18 +18 1016.0 1006.0
22 24.06 СВ 1 16 км н/о +17.9 +14.8 82 +19 +19 1015.9 1006.0
23 24.06 СЗ 1 20 км н/о +20.9 +15.5 71 +25 +25 комфорт 1015.9 1006.1
00 25.06 Ю 1 20 км н/о +25.5 +16.1 56 +29 +29 душно 1015.2 1005.6 +15.9
01 25.06 СВ 2 20 км н/о +28.0 +15.7 47 +31 +31 душно 1014.8 1005.2
02 25.06 В 2 20 км н/о +29.2 +15.0 42 +32 +32 душно 1014.0 1004.5
03 25.06 СВ 3 20 км н/о +31.9 +16.2 39 +35 +35 очень
душно
1013.2 1003.8
05 25.06 СВ 5 20 км н/о +32.7 +18.1 42 +37 +37 очень
душно
1011.8 1002.4
06 25.06 СВ 5 20 км н/о +32.0 +18.6 45 +37 +37 очень
душно
1011.7 1002.3
07 25.06 СВ 4 20 км н/о +30.8 +18.5 48 +36 +36 очень
душно
1011.7 1002.3
08 25.06 СВ 4 20 км н/о +30.6 +19.0 50 +36 +36 очень
душно
1011.7 1002.3
09 25.06 СВ 3 20 км н/о +29.9 +18.7 51 +35 +35 очень
душно
1012.0 1002.5
10 25.06 В 3 19 км н/о +28.8 +18.3 53 +34 +34 очень
душно
1012.5 1003.0
11 25.06 В 4 20 км н/о +27.5 +17.4 54 +32 +32 очень
душно
1013.3 1003.7

 

Местоположение метеостанции Хита (Япония): широта 33.32 долгота 130.93 высота над уровнем моря 84 м.

В архиве по умолчанию представлена погода в Хите за последнюю неделю. Архивные данные за месяц целиком и за предыдущие месяцы, начиная с января 2011 года, Вы можете получить, выбрав интересующий диапазон дат из раскрывающегося списка и нажав кнопку "Ввод!".


*Определитесь, кто Вы:
робот инопланетянин человек

Внимание! Время в таблицах - всемирное. Для получения местного времени необходимо прибавить поправку, которая равна 9 ч.

Смотрите также архив погоды в соседних городах и на ближайших метеорологических станциях:

Погода в Иидзуке (Япония) (43 км)
Погода на Асо (Япония) (50 км)
Погода в Фукуоке (Япония) (59 км)
Погода в Саге (Япония) (59 км)
Погода в Кумамото (Япония) (60 км)
Погода в Оите (Япония) (64 км)
Погода в Симоносеки (Япония) (70 км)
Погода на Ундзэне (Япония) (91 км)
Погода в Ямагути (Япония) (106 км)
Погода в Нобеоке (Япония) (106 км)

Пояснения к столбцам:

Ветер - указаны скорость ветра в м/с - средняя за 10 мин, порывы в срок и между сроками (в фигурных скобках) и направление, откуда дует ветер: С - северный, СВ - северо-восточный, В - восточный, ЮВ - юго-восточный, Ю - южный, ЮЗ - юго-западный, З - западный, СЗ - северо-западный.
Видимость - горизонтальная дальность видимости в метрах или километрах. При видимости от 1 до 10 км при отсутствии осадков обычно наблюдается дымка, при ухудшении видимости до 1 км и менее - туман. В сухую погоду видимость может ухудшаться дымом, пылью или мглою.
Явления - указаны атмосферные явления, наблюдавшиеся в срок или в последний час перед сроком; фигурными скобками обозначены явления, наблюдавшиеся между сроками (за 1-3 часа до срока); квадратными скобками обозначены град или гололедные отложения с указанием их диаметра в мм.
Облачность - указаны через наклонную черту общая и нижняя облачность в баллах и высота нижней границы облаков в метрах; квадратными скобками обозначены формы облаков: Ci - перистые, Cs - перисто-слоистые, Cc - перисто-кучевые, Ac - высококучевые, As - высокослоистые, Sc - слоисто-кучевые, Ns - слоисто-дождевые, Cu - кучевые, Cb - кучево-дождевые. Подробнее классификацию облаков см. в Атласе облаков (PDF).
T - Температура воздуха - температура, измеренная на высоте 2 м над землей.
Td - Температура точки росы - температура, при понижении до которой содержащийся в воздухе водяной пар достигнет насыщения.
f - Относительная влажность воздуха - влажноcть воздуха, измеренная на высоте 2 м над землей.
Te - Эффективная температура - температура, которую ощущает одетый по сезону человек в тени. Характеристика душности погоды. При расчете учитывается влияние влажности воздуха и скорости ветра на теплоощущения человека.
Tes - Эффективная температура на солнце - температура, которую ощущает человек, с поправкой на солнечный нагрев. Характеристика знойности погоды. Зависит от высоты солнца над горизонтом, облачности и скорости ветра. Ночью, в пасмурную погоду, а также при ветре 12 м/с и более поправка равна нулю.
P - Атмосферное давление - приведенное к уровню моря атмосферное давление.
Po - Атмосферное давление - измеренное на уровне метеостанции атмосферное давление.
Tmin - Минимальная температура - минимум температуры воздуха на высоте 2 м над землей.
Tmax - Максимальная температура - максимум температуры воздуха на высоте 2 м над землей.
R - Количество осадков - Количество выпавших осадков за период времени, мм. При наведении курсора мыши на число - период времени, за который выпало указанное количество осадков.
R24 - Количество осадков - Количество выпавших осадков за 24 часа, мм.
S - Снежный покров - Высота снежного покрова, см. При наведении курсора мыши на число - состояние снежного покрова и степень покрытия местности в баллах.